This is the latest recevied weather packets stored in our database for station/object WA1NHP. If no packets are shown the sender has not sent any weather packets the latest 10 day(s).
| Time | Temp. | Humidity | Pressure | Rain* | Wind** | Luminosity | Snow |
|---|---|---|---|---|---|---|---|
| 1777902844 | 14.44° C | 49% | 1023.9 hPa | 0 mm | - | 784 W/m² | - |
| 1777902243 | 13.89° C | 51% | 1023.9 hPa | 0 mm | - | 756 W/m² | - |
| 1777901644 | 13.33° C | 49% | 1023.9 hPa | 0 mm | - | 749 W/m² | - |
| 1777901043 | 12.78° C | 51% | 1023.9 hPa | 0 mm | - | 214 W/m² | - |
| 1777900444 | 12.78° C | 50% | 1023.9 hPa | 0 mm | - | 107 W/m² | - |
| 1777899844 | 12.78° C | 52% | 1023.9 hPa | 0 mm | - | 239 W/m² | - |
| 1777899244 | 12.22° C | 53% | 1023.9 hPa | 0 mm | - | 105 W/m² | - |
| 1777898643 | 11.67° C | 54% | 1023.9 hPa | 0 mm | - | 209 W/m² | - |
| 1777898044 | 11.11° C | 56% | 1023.9 hPa | 0 mm | - | 185 W/m² | - |
| 1777897444 | 10.56° C | 56% | 1023.9 hPa | 0 mm | - | 396 W/m² | - |
| 1777896844 | 10° C | 58% | 1023.9 hPa | 0 mm | - | 188 W/m² | - |
| 1777896244 | 9.44° C | 60% | 1023.9 hPa | 0 mm | - | 98 W/m² | - |
| 1777895644 | 8.89° C | 62% | 1023.9 hPa | 0 mm | - | 137 W/m² | - |
| 1777895044 | 8.33° C | 63% | 1023.9 hPa | 0 mm | - | 95 W/m² | - |
| 1777894443 | 7.78° C | 64% | 1023.9 hPa | 0 mm | - | 176 W/m² | - |
| 1777893844 | 7.22° C | 65% | 1023.9 hPa | 0 mm | - | 76 W/m² | - |
| 1777893244 | 7.22° C | 66% | 1023.9 hPa | 0 mm | - | 58 W/m² | - |
| 1777892644 | 6.67° C | 68% | 1023.9 hPa | 0 mm | - | 40 W/m² | - |
| 1777892044 | 6.11° C | 72% | 1023.9 hPa | 0 mm | - | 37 W/m² | - |
| 1777891444 | 5.56° C | 75% | 1023.9 hPa | 0 mm | - | 54 W/m² | - |
| 1777890844 | 5° C | 74% | 1023.9 hPa | 0 mm | - | 39 W/m² | - |
| 1777890243 | 4.44° C | 75% | 1023.9 hPa | 0 mm | - | 23 W/m² | - |
| 1777889643 | 4.44° C | 77% | 1023.9 hPa | 0 mm | - | 18 W/m² | - |
| 1777889044 | 3.89° C | 78% | 1023.9 hPa | 0 mm | - | 11 W/m² | - |
| 1777888444 | 3.89° C | 78% | 1023.9 hPa | 0 mm | - | 5 W/m² | - |
* Rain latest hour (hover to see other rain measurements)
** Current wind speed in m/s (hover to see current wind gust speed)